Location: Bli��� Lhota
(48.7570°N, 14.0120°E)
Time: 06:13:32
(UTC+00:00)

Cosmos 2082 Rocket - Pass Details

Date: 18 September 2020
Orbit: 834 x 853 km, 71.0° (Epoch: 22 October)

Event Time Altitude Azimuth Distance (km) Brightness Sun altitude
Rises 20:39:37 0° 333° (NNW) 3,393 6.4 -31.6°
Reaches altitude 10° 20:42:05 10° 336° (NNW) 2,456 5.4 -31.9°
Enters shadow 20:46:13 48° 357° (N) 1,088 2.9 -32.3°
